Delaware, OH

8:16 PM EDT on June 24, 2017 (GMT -0400)
Delaware Municipal

Weather History for KDLZ - January, 2013

Change the Weather History Date:

Monday, January 28, 2013

  Actual Average Record
Temperature  
Mean Temperature 39 °F -  
Max Temperature 46 °F 34 °F 65 °F (1974)
Min Temperature 32 °F 16 °F -22 °F (2014)
Degree Days  
Heating Degree Days 26    
Moisture  
Dew Point 39 °F    
Average Humidity 95    
Maximum Humidity 100    
Minimum Humidity 87    
Precipitation  
Precipitation 0.03 in - - ()
Sea Level Pressure  
Sea Level Pressure 30.06 in    
Wind  
Wind Speed 11 mph (SSW)    
Max Wind Speed 17 mph    
Max Gust Speed 24 mph    
Visibility 4 miles    
Events Fog , Rain    
Averages and records for this station are not official NWS values.
T = Trace of Precipitation, MM = Missing Value Source: NWS Daily Summary

Daily Weather History Graph

Daily Weather History Graph

Search for Another Location

Airport or City:

Trip Planner

Search our weather history database for the weather conditions in past years. The results will help you decide how hot, cold, wet, or windy it might be!

Date:

Astronomy

Jan. 28, 2013 Rise Set
Actual Time 7:44 AM EST 5:46 PM EST
Civil Twilight 7:15 AM EST 6:15 PM EST
Nautical Twilight 6:43 AM EST 6:48 PM EST
Astronomical Twilight 6:11 AM EST 7:20 PM EST
Moon 7:40 PM EST (1/28) 8:09 AM EST (1/28)
Length of Visible Light 10h 59m
Length of Day
10h 01m
Full, 98% of the Moon is Illuminated
Jan 28
Full
Feb 3
Last Quarter
Feb 10
New
Feb 17
First Quarter
Feb 25
Full

Hourly Weather History & Observations

Time (EST) Temp. Windchill Dew Point Humidity Pressure Visibility Wind Dir Wind Speed Gust Speed Precip Events Conditions
12:04 AM 32.0 °F 23.6 °F 30.2 °F 93% 30.20 in 5.0 mi SE 10.4 mph - N/A   Overcast
12:23 AM 32.0 °F 24.8 °F 30.2 °F 93% 30.20 in 5.0 mi SE 8.1 mph - 0.02 in   Overcast
12:43 AM 32.0 °F 24.2 °F 30.2 °F 93% 30.17 in 7.0 mi SE 9.2 mph - 0.02 in   Overcast
1:04 AM 32.0 °F 24.2 °F 30.2 °F 93% 30.16 in 5.0 mi SE 9.2 mph - N/A   Overcast
1:23 AM 32.0 °F 23.6 °F 32.0 °F 100% 30.15 in 5.0 mi SE 10.4 mph - N/A   Overcast
1:43 AM 32.0 °F 24.2 °F 32.0 °F 100% 30.14 in 4.0 mi SSE 9.2 mph - 0.01 in   Overcast
2:04 AM 32.0 °F 24.2 °F 32.0 °F 100% 30.13 in 4.0 mi SSE 9.2 mph - N/A   Overcast
2:23 AM 32.0 °F 24.2 °F 32.0 °F 100% 30.13 in 4.0 mi SSE 9.2 mph - 0.02 in   Overcast
2:44 AM 32.0 °F 24.8 °F 32.0 °F 100% 30.15 in 5.0 mi South 8.1 mph - 0.02 in   Overcast
3:04 AM 32.0 °F 24.8 °F 32.0 °F 100% 30.15 in 5.0 mi SSE 8.1 mph - N/A   Overcast
3:23 AM 32.0 °F 24.2 °F 32.0 °F 100% 30.14 in 5.0 mi SSE 9.2 mph - N/A   Overcast
3:44 AM 32.0 °F 23.0 °F 32.0 °F 100% 30.12 in 4.0 mi SSE 11.5 mph - N/A   Overcast
4:03 AM 32.0 °F 22.1 °F 32.0 °F 100% 30.12 in 3.0 mi SSE 13.8 mph - N/A   Overcast
4:23 AM 32.0 °F 23.0 °F 32.0 °F 100% 30.10 in 3.0 mi South 11.5 mph - N/A   Overcast
4:44 AM 33.8 °F 24.3 °F 32.0 °F 93% 30.08 in 3.0 mi South 13.8 mph - N/A   Overcast
5:03 AM 33.8 °F 25.3 °F 32.0 °F 93% 30.08 in 3.0 mi South 11.5 mph - N/A   Overcast
5:23 AM 33.8 °F 25.8 °F 33.8 °F 100% 30.08 in 3.0 mi South 10.4 mph - N/A   Overcast
5:44 AM 33.8 °F 25.8 °F 33.8 °F 100% 30.07 in 4.0 mi South 10.4 mph - N/A   Overcast
6:03 AM 35.6 °F 27.5 °F 33.8 °F 93% 30.07 in 5.0 mi South 11.5 mph 17.3 mph N/A   Overcast
6:23 AM 35.6 °F 28.0 °F 33.8 °F 93% 30.06 in 5.0 mi South 10.4 mph 16.1 mph N/A   Overcast
6:44 AM 35.6 °F 28.6 °F 33.8 °F 93% 30.07 in 5.0 mi South 9.2 mph - N/A   Overcast
7:03 AM 35.6 °F 28.0 °F 33.8 °F 93% 30.06 in 5.0 mi South 10.4 mph - N/A   Overcast
7:23 AM 35.6 °F 28.0 °F 33.8 °F 93% 30.06 in 5.0 mi South 10.4 mph - N/A   Overcast
7:44 AM 35.6 °F 27.5 °F 33.8 °F 93% 30.05 in 4.0 mi South 11.5 mph 16.1 mph N/A   Drizzle
8:03 AM 35.6 °F 27.1 °F 33.8 °F 93% 30.04 in 4.0 mi South 12.7 mph - N/A   Light Drizzle
8:24 AM 35.6 °F 27.5 °F 35.6 °F 100% 30.05 in 3.0 mi South 11.5 mph - N/A   Overcast
8:44 AM 35.6 °F 28.0 °F 35.6 °F 100% 30.05 in 4.0 mi South 10.4 mph - N/A   Drizzle
9:03 AM 37.4 °F 30.8 °F 35.6 °F 93% 30.06 in 3.0 mi SSW 9.2 mph - N/A Rain Rain
9:24 AM 37.4 °F 28.9 °F 35.6 °F 93% 30.05 in 5.0 mi SSW 13.8 mph - N/A   Light Drizzle
9:44 AM 37.4 °F 30.3 °F 35.6 °F 93% 30.05 in 5.0 mi SSW 10.4 mph - N/A Rain Rain
10:24 AM 39.2 °F 31.6 °F 37.4 °F 93% 30.05 in 5.0 mi SSW 12.7 mph - N/A Rain Light Rain
10:44 AM 39.2 °F 31.6 °F 37.4 °F 93% 30.05 in 7.0 mi SSW 12.7 mph - N/A   Overcast
11:03 AM 41.0 °F 33.9 °F 37.4 °F 87% 30.05 in 4.0 mi SSW 12.7 mph - N/A   Overcast
11:23 AM 41.0 °F 33.5 °F 37.4 °F 87% 30.05 in 5.0 mi SSW 13.8 mph 17.3 mph N/A   Overcast
11:44 AM 41.0 °F 33.9 °F 39.2 °F 93% 30.05 in 7.0 mi SSW 12.7 mph 20.7 mph N/A   Overcast
12:03 PM 42.8 °F 35.4 °F 39.2 °F 87% 30.04 in 7.0 mi SSW 15.0 mph 19.6 mph N/A   Overcast
12:44 PM 42.8 °F 35.8 °F 41.0 °F 93% 30.03 in 7.0 mi SW 13.8 mph 20.7 mph N/A   Overcast
1:03 PM 44.6 °F 37.4 °F 42.8 °F 93% 30.02 in 7.0 mi SW 16.1 mph 23.0 mph N/A   Overcast
1:24 PM 44.6 °F 37.2 °F 42.8 °F 93% 30.00 in 7.0 mi SW 17.3 mph 24.2 mph N/A   Overcast
1:44 PM 46.4 °F 39.8 °F 42.8 °F 87% 30.00 in 7.0 mi SW 16.1 mph 20.7 mph N/A Rain Light Rain
2:03 PM 46.4 °F 40.1 °F 42.8 °F 87% 30.00 in 7.0 mi SW 15.0 mph 20.7 mph N/A   Overcast
2:24 PM 46.4 °F 40.1 °F 42.8 °F 87% 29.99 in 7.0 mi SW 15.0 mph - N/A   Overcast
2:43 PM 46.4 °F 40.1 °F 44.6 °F 93% 29.99 in 5.0 mi SW 15.0 mph 19.6 mph N/A   Overcast
3:03 PM 46.4 °F 40.4 °F 44.6 °F 93% 29.99 in 5.0 mi SSW 13.8 mph - N/A   Overcast
3:24 PM 46.4 °F 40.4 °F 44.6 °F 93% 29.99 in 7.0 mi SW 13.8 mph 17.3 mph N/A   Overcast
3:43 PM 46.4 °F 41.1 °F 44.6 °F 93% 29.99 in 7.0 mi SW 11.5 mph - N/A   Overcast
4:03 PM 46.4 °F 40.7 °F 44.6 °F 93% 29.99 in 7.0 mi SW 12.7 mph 17.3 mph N/A   Overcast
4:24 PM 46.4 °F 40.7 °F 44.6 °F 93% 30.00 in 7.0 mi SW 12.7 mph 17.3 mph N/A   Overcast
4:43 PM 46.4 °F 40.4 °F 44.6 °F 93% 30.01 in 7.0 mi SW 13.8 mph - N/A   Overcast
5:03 PM 46.4 °F 40.4 °F 44.6 °F 93% 30.01 in 5.0 mi SW 13.8 mph 20.7 mph N/A   Overcast
5:24 PM 46.4 °F 39.8 °F 44.6 °F 93% 30.01 in 4.0 mi SW 16.1 mph - N/A   Overcast
5:43 PM 46.4 °F 40.1 °F 44.6 °F 93% 30.01 in 3.0 mi SW 15.0 mph - N/A   Overcast
6:03 PM 46.4 °F 40.7 °F 44.6 °F 93% 30.02 in 3.0 mi SW 12.7 mph 18.4 mph N/A   Overcast
6:24 PM 46.4 °F 41.1 °F 44.6 °F 93% 30.03 in 2.0 mi SW 11.5 mph - N/A   Overcast
6:43 PM 46.4 °F 41.5 °F 44.6 °F 93% 30.03 in 2.0 mi SW 10.4 mph - N/A   Overcast
7:04 PM 46.4 °F 41.5 °F 44.6 °F 93% 30.03 in 2.0 mi SW 10.4 mph - N/A   Overcast
7:24 PM 46.4 °F 41.5 °F 44.6 °F 93% 30.03 in 2.5 mi SW 10.4 mph - N/A   Overcast
7:43 PM 46.4 °F 41.9 °F 44.6 °F 93% 30.03 in 2.5 mi SW 9.2 mph - N/A   Overcast
8:04 PM 46.4 °F 42.4 °F 44.6 °F 93% 30.03 in 1.8 mi SW 8.1 mph - N/A   Overcast
8:24 PM 46.4 °F 42.4 °F 44.6 °F 93% 30.03 in 1.2 mi SW 8.1 mph - N/A   Overcast
8:43 PM 46.4 °F 41.5 °F 44.6 °F 93% 30.04 in 1.0 mi SSW 10.4 mph - N/A   Overcast
9:04 PM 46.4 °F 42.4 °F 44.6 °F 93% 30.03 in 0.8 mi SSW 8.1 mph - N/A   Overcast
9:24 PM 46.4 °F 41.9 °F 44.6 °F 93% 30.03 in 0.5 mi SSW 9.2 mph - N/A Fog Fog
9:43 PM 44.6 °F 41.4 °F 44.6 °F 100% 30.03 in 0.2 mi SSW 5.8 mph - N/A Fog Fog
10:04 PM 44.6 °F 40.2 °F 44.6 °F 100% 30.04 in 0.2 mi SSW 8.1 mph - N/A Fog Fog
10:24 PM 44.6 °F 39.7 °F 44.6 °F 100% 30.04 in 0.2 mi SSW 9.2 mph - N/A Fog Fog
10:43 PM 44.6 °F 40.7 °F 44.6 °F 100% 30.04 in 0.2 mi SSW 6.9 mph - N/A Fog Fog
11:04 PM 44.6 °F 40.7 °F 44.6 °F 100% 30.05 in 0.2 mi SSW 6.9 mph - N/A Fog Fog
11:24 PM 44.6 °F 40.2 °F 44.6 °F 100% 30.05 in 0.2 mi SSW 8.1 mph - N/A Fog Fog